DW8790 Maspalomas ES current weather conditions

sailwx.info

Wind from 216 at 6 knots gusting 8

Air temperature 27.8° C
Dewpoint 21.1° C

Last reported at 2014-Aug-27 12:50 UTC.
Time now 2014-Aug-27 13:09 UTC

Location: N 27°46' W 015°34'.
View on Google Maps.

See reports from other nearby stations

  
Tides and Currents Weather Stations Pressure Air Temp Water Temp Dewpoint Dewpoint Depression Visibility Wind Speed Wind Dir Waves Ship Positions
date/time (UTC)wind fromknots sea level pressurealtimeterstation pressurevisibilityair tempwater tempwave heightnotes
2014-Aug-27 12:50 216 6 gusting 8 27.8
2014-Aug-27 12:40 239 4 gusting 6 27.2
2014-Aug-27 12:30 249 5 gusting 8 27.2
2014-Aug-27 12:20 259 6 gusting 10 27.2
2014-Aug-27 12:10 260 6 gusting 10 26.7
2014-Aug-27 12:00 238 6 gusting 10 26.7
2014-Aug-27 11:50 292 6 gusting 10 27.2
2014-Aug-27 11:40 205 5 gusting 10 27.8
2014-Aug-27 11:30 241 5 gusting 8 27.8
2014-Aug-27 11:20 231 4 gusting 7 27.8
2014-Aug-27 11:10 266 4 gusting 6 27.8
2014-Aug-27 11:00 243 4 gusting 6 27.8
2014-Aug-27 10:50 259 3 gusting 6 27.2
2014-Aug-27 10:40 243 2 gusting 6 27.2
2014-Aug-27 10:30 199 2 gusting 5 27.2
2014-Aug-27 10:20 196 1 gusting 4 26.7
2014-Aug-27 10:10 240 2 gusting 5 26.7
2014-Aug-27 10:00 197 1 gusting 2 26.1
2014-Aug-27 09:50 292 1 gusting 6 26.1
2014-Aug-27 09:40 187 0 gusting 4 25.6
2014-Aug-27 09:30 212 2 gusting 4 25.0
2014-Aug-27 09:20 271 0 gusting 5 25.0
2014-Aug-27 09:10 162 25.0
2014-Aug-27 09:00 161 24.4
2014-Aug-27 08:50 115 1 gusting 4 24.4
2014-Aug-27 08:40 178 23.9
2014-Aug-27 08:30 178 1 gusting 2 23.9
2014-Aug-27 08:20 104 23.3
2014-Aug-27 08:10 104 2 gusting 5 23.3
2014-Aug-27 08:00 117 2 gusting 6 22.8
2014-Aug-27 07:50 091 2 gusting 4 22.8
2014-Aug-27 07:40 113 0 gusting 4 22.2
2014-Aug-27 07:30 113 2 gusting 4 22.2
2014-Aug-27 07:20 092 2 gusting 5 21.7
2014-Aug-27 07:10 110 1 gusting 2 21.7
2014-Aug-27 07:00 254 21.7
2014-Aug-27 06:50 254 0 gusting 2 21.7
2014-Aug-27 06:40 254 21.7
2014-Aug-27 06:30 279 0 gusting 2 21.7
2014-Aug-27 06:20 254 2 gusting 5 21.7
2014-Aug-27 06:10 255 3 gusting 4 21.7
2014-Aug-27 06:00 286 0 gusting 2 21.7
2014-Aug-27 05:50 286 21.7
2014-Aug-27 05:40 286 21.7
2014-Aug-27 05:30 186 0 gusting 2 21.7
2014-Aug-27 05:20 186 21.7
2014-Aug-27 05:10 186 21.7
2014-Aug-27 05:00 186 21.7
2014-Aug-27 04:50 186 21.7
2014-Aug-27 04:40 186 21.7
2014-Aug-27 04:30 186 21.7
2014-Aug-27 04:20 186 2 gusting 2 21.7
2014-Aug-27 04:10 186 1 gusting 2 22.2
2014-Aug-27 04:00 186 22.2
2014-Aug-27 03:50 186 22.2
2014-Aug-27 03:40 186 22.2
2014-Aug-27 03:30 186 22.2
2014-Aug-27 03:20 186 22.2
2014-Aug-27 03:10 186 22.2
2014-Aug-27 03:00 243 1 gusting 4 22.2
2014-Aug-27 02:50 267 22.2
2014-Aug-27 02:40 267 0 gusting 2 22.2
2014-Aug-27 02:30 267 0 gusting 2 22.2
2014-Aug-27 02:20 267 1 gusting 2 22.2
2014-Aug-27 02:10 267 22.2
2014-Aug-27 02:00 294 2 gusting 5 22.2
2014-Aug-27 01:50 280 0 gusting 2 22.2
2014-Aug-27 01:40 283 0 gusting 4 22.2
2014-Aug-27 01:30 272 2 gusting 4 22.2
2014-Aug-27 01:20 273 1 gusting 4 22.2
2014-Aug-27 01:10 273 2 gusting 4 22.2
2014-Aug-27 01:00 270 2 gusting 4 22.2
2014-Aug-27 00:50 303 1 gusting 4 22.2
2014-Aug-27 00:40 282 2 gusting 5 22.2
2014-Aug-27 00:30 213 1 gusting 4 22.2
2014-Aug-27 00:20 162 1 gusting 2 22.8
2014-Aug-27 00:10 162 1 gusting 4 22.8
2014-Aug-27 00:00 161 2 gusting 4 22.8
2014-Aug-26 23:50 188 0 gusting 2 22.8
2014-Aug-26 23:40 216 23.3
2014-Aug-26 23:30 244 2 gusting 4 23.3
2014-Aug-26 23:20 242 1 gusting 4 23.3
2014-Aug-26 23:10 294 2 gusting 6 23.3
2014-Aug-26 23:00 259 1 gusting 6 23.3
2014-Aug-26 22:50 246 2 gusting 4 23.3
2014-Aug-26 22:40 229 1 gusting 4 23.3
2014-Aug-26 22:30 250 1 gusting 6 23.3
2014-Aug-26 22:20 270 1 gusting 5 23.3
2014-Aug-26 22:10 256 2 gusting 4 23.3
2014-Aug-26 22:00 186 0 gusting 2 23.3
2014-Aug-26 21:50 251 0 gusting 2 23.3
2014-Aug-26 21:40 251 23.3
2014-Aug-26 21:30 251 2 gusting 4 23.9
2014-Aug-26 21:20 249 0 gusting 5 23.9
2014-Aug-26 21:10 244 1 gusting 5 23.9
2014-Aug-26 21:00 210 2 gusting 7 23.9
2014-Aug-26 20:50 265 6 gusting 8 23.9
2014-Aug-26 20:40 280 5 gusting 8 23.9
2014-Aug-26 20:30 278 4 gusting 10 23.3
2014-Aug-26 20:20 273 5 gusting 10 23.3
2014-Aug-26 20:10 271 6 gusting 10 23.3
2014-Aug-26 20:00 267 6 gusting 10 23.3
2014-Aug-26 19:50 260 5 gusting 8 23.3
2014-Aug-26 19:40 298 4 gusting 8 23.3
2014-Aug-26 19:30 248 4 gusting 7 23.9
2014-Aug-26 19:21 252 4 gusting 6 23.9
2014-Aug-26 19:11 240 4 gusting 6 24.4
2014-Aug-26 19:01 267 2 gusting 6 25.0
2014-Aug-26 18:51 228 2 gusting 7 25.0
2014-Aug-26 18:41 238 1 gusting 7 25.6
2014-Aug-26 18:30 220 2 gusting 7 26.1
2014-Aug-26 18:20 239 4 gusting 6 26.7
2014-Aug-26 18:10 239 4 gusting 8 26.7
2014-Aug-26 18:00 228 5 gusting 7 27.8
2014-Aug-26 17:50 241 4 gusting 8 27.8
2014-Aug-26 17:40 221 5 gusting 8 28.3
2014-Aug-26 17:30 231 4 gusting 7 29.4
2014-Aug-26 17:20 226 2 gusting 8 29.4
2014-Aug-26 17:10 231 5 gusting 7 29.4
2014-Aug-26 17:00 234 5 gusting 10 29.4
2014-Aug-26 16:50 240 4 gusting 11 29.4
2014-Aug-26 16:40 245 5 gusting 10 29.4
2014-Aug-26 16:30 224 4 gusting 10 29.4
2014-Aug-26 16:20 221 5 gusting 10 29.4
2014-Aug-26 16:10 225 5 gusting 8 28.9
2014-Aug-26 16:00 275 6 gusting 11 28.3
2014-Aug-26 15:50 253 6 gusting 11 28.9
2014-Aug-26 15:40 254 6 gusting 10 28.3
2014-Aug-26 15:30 239 5 gusting 8 28.3
2014-Aug-26 15:20 245 6 gusting 8 28.3
2014-Aug-26 15:10 260 6 gusting 8 27.8
2014-Aug-26 15:00 232 2 gusting 6 28.3
2014-Aug-26 14:50 175 2 gusting 7 27.8
2014-Aug-26 14:40 168 5 gusting 8 28.9
2014-Aug-26 14:30 221 4 gusting 6 28.9
2014-Aug-26 14:20 252 2 gusting 6 28.9
2014-Aug-26 14:10 217 5 gusting 8 28.9
2014-Aug-26 14:00 234 4 gusting 6 28.9
2014-Aug-26 13:50 227 2 gusting 7 28.3
2014-Aug-26 13:40 184 4 gusting 7 28.3
2014-Aug-26 13:30 172 4 gusting 6 28.3
2014-Aug-26 13:20 220 2 gusting 8 28.9
2014-Aug-26 13:10 175 3 gusting 7 28.3
2014-Aug-26 13:00 251 4 gusting 8 28.3
2014-Aug-26 12:50 167 3 gusting 8 28.3
2014-Aug-26 12:40 242 3 gusting 10 27.8
2014-Aug-26 12:30 243 6 gusting 10 28.3
2014-Aug-26 12:20 239 6 gusting 10 28.9
2014-Aug-26 12:10 262 6 gusting 8 28.9
2014-Aug-26 12:00 198 4 gusting 11 28.9
2014-Aug-26 11:50 218 6 gusting 11 28.9
2014-Aug-26 11:40 243 5 gusting 10 28.9
2014-Aug-26 11:30 249 6 gusting 8 28.9
2014-Aug-26 11:20 220 4 gusting 8 28.3
2014-Aug-26 11:10 237 4 gusting 7 28.3
2014-Aug-26 11:00 250 4 gusting 7 27.8
2014-Aug-26 10:50 250 4 gusting 6 26.7
2014-Aug-26 10:40 273 5 gusting 10 26.7
2014-Aug-26 10:30 246 4 gusting 6 26.7
2014-Aug-26 10:20 224 4 gusting 6 26.1
2014-Aug-26 10:10 240 2 gusting 6 25.6
2014-Aug-26 10:00 275 3 gusting 6 25.0
2014-Aug-26 09:50 255 5 gusting 6 25.6
2014-Aug-26 09:40 243 4 gusting 6 25.0
2014-Aug-26 09:30 249 4 gusting 5 25.0
2014-Aug-26 09:20 222 2 gusting 6 24.4
2014-Aug-26 09:10 259 1 gusting 6 24.4
2014-Aug-26 09:00 236 4 gusting 6 23.9
2014-Aug-26 08:50 274 3 gusting 6 23.9
2014-Aug-26 08:40 259 2 gusting 5 23.3
2014-Aug-26 08:30 268 3 gusting 5 22.8
2014-Aug-26 08:20 215 2 gusting 5 22.8
2014-Aug-26 08:10 268 2 gusting 4 22.8
2014-Aug-26 08:00 270 3 gusting 5 22.2
2014-Aug-26 07:50 292 1 gusting 4 21.7
2014-Aug-26 07:40 277 0 gusting 2 21.1
2014-Aug-26 07:30 277 21.1
2014-Aug-26 07:20 277 0 gusting 2 20.6
2014-Aug-26 07:10 277 20.6
2014-Aug-26 07:00 277 20.6
2014-Aug-26 06:50 277 20.6
2014-Aug-26 06:40 277 0 gusting 2 20.6
2014-Aug-26 06:30 277 20.6
2014-Aug-26 06:20 277 20.6
2014-Aug-26 06:10 277 20.6
2014-Aug-26 06:00 317 1 gusting 2 20.6
2014-Aug-26 05:50 293 0 gusting 4 20.6
2014-Aug-26 05:40 321 1 gusting 2 20.6
2014-Aug-26 05:30 355 1 gusting 2 20.6
2014-Aug-26 05:20 279 20.6
2014-Aug-26 05:10 279 20.6
2014-Aug-26 05:00 279 20.6
2014-Aug-26 04:50 279 20.6
2014-Aug-26 04:40 279 20.6
2014-Aug-26 04:30 279 20.6
2014-Aug-26 04:20 279 20.6
2014-Aug-26 04:10 279 20.6
2014-Aug-26 04:00 279 20.6
2014-Aug-26 03:50 279 20.6
2014-Aug-26 03:40 279 21.1
2014-Aug-26 03:30 279 21.1
2014-Aug-26 03:20 279 21.1
2014-Aug-26 03:10 279 21.1
2014-Aug-26 03:00 279 21.1
2014-Aug-26 02:50 279 21.1
2014-Aug-26 02:40 279 21.1
2014-Aug-26 02:30 279 21.1
2014-Aug-26 02:20 279 0 gusting 1 21.7
2014-Aug-26 02:10 279 21.7
2014-Aug-26 02:00 279 0 gusting 2 21.7
2014-Aug-26 01:50 279 21.7
2014-Aug-26 01:40 279 21.7
2014-Aug-26 01:30 279 21.7
2014-Aug-26 01:20 279 21.7
2014-Aug-26 01:10 279 21.7
2014-Aug-26 01:00 279 21.7
2014-Aug-26 00:50 279 21.7
2014-Aug-26 00:40 279 21.7
2014-Aug-26 00:30 279 0 gusting 2 22.2
2014-Aug-26 00:20 279 1 gusting 4 22.2
2014-Aug-26 00:10 278 2 gusting 4 22.2
2014-Aug-26 00:00 284 2 gusting 4 22.2
2014-Aug-25 23:50 263 1 gusting 4 22.2
2014-Aug-25 23:40 248 2 gusting 2 22.8
2014-Aug-25 23:30 275 0 gusting 4 22.8
2014-Aug-25 23:20 250 4 gusting 5 22.8
2014-Aug-25 23:10 264 2 gusting 5 22.8
2014-Aug-25 23:00 255 2 gusting 5 22.8
2014-Aug-25 22:50 254 1 gusting 2 22.8
2014-Aug-25 22:40 249 2 gusting 2 22.8
2014-Aug-25 22:30 223 0 gusting 4 22.8
2014-Aug-25 22:20 239 2 gusting 4 22.8
2014-Aug-25 22:10 210 2 gusting 5 23.3
2014-Aug-25 22:00 244 2 gusting 5 23.3
2014-Aug-25 21:50 255 2 gusting 6 23.3
2014-Aug-25 21:40 253 2 gusting 6 23.3
2014-Aug-25 21:30 261 5 gusting 6 23.3
2014-Aug-25 21:20 265 4 gusting 6 23.3
2014-Aug-25 21:10 273 5 gusting 7 23.3
2014-Aug-25 21:00 283 4 gusting 6 23.3
2014-Aug-25 20:50 247 3 gusting 7 23.3
2014-Aug-25 20:40 261 3 gusting 6 23.9
2014-Aug-25 20:30 233 2 gusting 6 23.9
2014-Aug-25 20:20 244 3 gusting 5 23.9
2014-Aug-25 20:10 248 2 gusting 5 23.9
2014-Aug-25 20:00 264 4 gusting 6 24.4
2014-Aug-25 19:50 231 3 gusting 5 24.4
2014-Aug-25 19:40 227 4 gusting 7 24.4
2014-Aug-25 19:30 267 6 gusting 8 24.4
2014-Aug-25 19:20 253 4 gusting 10 25.0
2014-Aug-25 19:10 259 7 gusting 10 25.6
2014-Aug-25 19:00 267 5 gusting 10 26.1
2014-Aug-25 18:50 267 6 gusting 8 26.7
2014-Aug-25 18:40 246 5 gusting 6 26.7
2014-Aug-25 18:30 230 4 gusting 6 27.2
2014-Aug-25 18:20 241 3 gusting 8 27.2
2014-Aug-25 18:10 259 3 gusting 8 27.2
2014-Aug-25 18:00 267 6 gusting 10 27.2
2014-Aug-25 17:50 253 6 gusting 10 27.8
2014-Aug-25 17:40 246 6 gusting 10 28.9
2014-Aug-25 17:30 199 3 gusting 7 29.4
2014-Aug-25 17:20 194 3 gusting 6 29.4
2014-Aug-25 17:10 167 4 gusting 6 29.4
2014-Aug-25 17:00 187 2 gusting 6 29.4
2014-Aug-25 16:50 207 2 gusting 6 29.4
2014-Aug-25 16:40 297 2 gusting 6 29.4
2014-Aug-25 16:30 307 2 gusting 4 29.4
2014-Aug-25 16:20 205 1 gusting 5 29.4
2014-Aug-25 16:10 202 2 gusting 6 28.9
2014-Aug-25 16:00 221 1 gusting 5 28.9
2014-Aug-25 15:50 236 4 gusting 7 28.3
2014-Aug-25 15:40 209 3 gusting 6 28.3
2014-Aug-25 15:30 200 4 gusting 8 27.8
2014-Aug-25 15:20 217 6 gusting 8 27.8
2014-Aug-25 15:10 239 4 gusting 11 27.8
2014-Aug-25 15:00 244 5 gusting 8 27.8
2014-Aug-25 14:50 254 4 gusting 8 27.8
2014-Aug-25 14:40 218 5 gusting 7 27.8
2014-Aug-25 14:30 231 5 gusting 10 27.8
2014-Aug-25 14:20 205 3 gusting 6 27.8
2014-Aug-25 14:10 232 5 gusting 8 27.2
2014-Aug-25 14:00 212 5 gusting 8 27.8
2014-Aug-25 13:50 191 4 gusting 8 27.8
2014-Aug-25 13:40 221 5 gusting 12 28.3
2014-Aug-25 13:30 199 5 gusting 10 28.3
2014-Aug-25 13:20 232 5 gusting 10 28.3
2014-Aug-25 13:10 259 4 gusting 10 27.8
2014-Aug-25 13:00 229 6 gusting 10 28.3